Tracking 25723 objects as of 26-Jun-2022
HD Live streaming from Space Station
objects crossing your sky now

STARLINK-1470

Track STARLINK-1470 now!
10-day predictions
STARLINK-1470 is classified as:


NORAD ID: 45772
Int'l Code: 2020-038AU
Perigee: 553.2 km
Apogee: 555.5 km
Inclination: 53.1 °
Period: 95.6 minutes
Semi major axis: 6925 km
RCS: Unknown
Launch date: June 13, 2020
Source: United States (US)
Launch site: AIR FORCE EASTERN TEST RANGE (AFETR)
aabbcc
Your satellite tracking list
Your tracking list is empty




NASA's NSSDC Master Catalog

Two Line Element Set (TLE):
1 45772U 20038AU  22177.31078295  .00000661  00000-0  63265-4 0  9991
2 45772  53.0549 147.6712 0001648  78.6911 281.4263 15.06399808112922
Source of the keplerian elements: AFSPC